Dewpoint
48 48 48 46 47 46 46 45 46 45 45 46 46 47 47 50 49 47 44 45 48 49 49 43 54 53 49 41 39 36 31 27 25 22 21 16 14 19 21 25 25 29 35 51 58
45 44 44 45 44 44 44 44 44 45 45 45 45 45 46 49 46 44 46 47 49 49 48 45 51 51 45 40 38 36 32 31 28 25 20 16 17 18 21 24 25 46 53 57 58
44 43 43 42 42 43 43 43 43 44 44 45 45 44 46 46 41 34 52 49 47 50 45 46 50 49 42 39 37 35 33 31 31 27 24 22 20 23 23 24 27 47 54 56 57
42 42 42 41 41 41 39 39 40 42 43 43 45 44 47 44 1 44 44 50 52 48 47 38 43 46 40 38 37 34 33 33 29 27 24 23 24 22 22 26 29 42 54 55 55
41 41 40 40 40 40 40 37 39 40 41 42 43 43 45 39 39 39 40 49 51 49 46 40 34 42 40 38 37 34 32 34 33 32 26 27 25 24 24 30 31 35 51 54 54
40 40 39 39 39 38 38 38 37 36 39 41 42 42 43 34 37 38 39 37 47 47 46 45 37 34 41 36 36 33 34 33 32 30 27 25 25 29 27 31 33 33 45 51 52
39 38 38 37 37 36 37 37 36 36 37 40 41 40 38 36 38 38 39 36 34 46 45 46 43 31 38 37 37 34 30 32 32 31 28 27 24 27 29 32 31 33 35 45 47
38 38 37 35 34 33 34 34 35 36 37 38 41 41 35 38 39 40 38 35 36 34 38 47 43 40 34 35 32 32 30 27 27 30 30 27 25 28 29 28 32 32 35 36 38
38 36 35 35 32 32 33 34 34 35 43 42 41 36 31 37 29 30 32 31 36 34 32 33 44 40 35 33 31 30 23 24 25 28 29 28 26 26 29 28 28 32 33 35 36
35 34 34 34 32 34 33 32 32 39 44 45 43 37 35 26 25 26 33 31 34 36 30 30 40 39 35 33 26 27 24 23 23 25 28 28 25 26 26 28 25 29 32 34 33
34 34 34 32 32 32 27 22 20 22 23 19 20 26 19 17 17 30 32 31 30 36 30 32 34 33 34 33 30 27 23 22 23 23 27 27 27 26 27 27 26 28 29 26 27
33 32 32 30 29 29 27 24 25 26 23 26 15 17 13 13 19 29 27 29 29 31 29 29 31 32 33 33 33 30 25 23 22 23 22 25 27 27 27 27 26 24 25 27 34
31 30 31 27 26 24 25 24 27 26 24 10 8 3 5 10 25 26 27 25 27 24 29 27 28 32 31 31 31 30 28 23 22 22 22 22 24 26 26 24 24 26 29 27 27
31 30 29 28 22 23 22 27 27 27 22 10 2 3 5 3 20 26 23 27 26 26 25 29 29 29 32 31 29 27 31 28 25 21 17 22 18 22 23 21 20 20 23 23 24
32 29 27 24 21 22 22 28 27 30 1 12 3 6 5 -1 18 20 19 21 22 22 24 24 27 29 29 32 32 29 32 30 27 23 21 21 16 20 20 18 17 17 19 19 19
33 31 25 21 20 21 24 31 30 6 -0 5 4 0 -1 -1 17 17 18 16 23 16 21 22 25 28 30 34 37 33 29 28 28 25 21 20 17 19 20 17 15 13 13 13 13
34 25 21 19 17 20 26 30 0 -1 4 1 1 0 -0 -2 12 12 11 11 14 9 9 15 21 31 29 26 32 35 30 23 22 22 17 22 19 12 13 14 12 10 10 11 11
34 21 18 16 20 16 16 3 1 3 5 3 2 4 1 1 2 11 12 6 14 16 12 11 13 21 24 23 22 25 31 22 14 18 21 22 17 11 9 8 9 9 9 9 11
33 12 14 15 20 14 8 4 5 7 7 5 3 2 1 4 2 5 11 8 8 8 10 11 12 22 19 22 21 20 25 31 19 17 21 15 15 14 10 11 10 11 11 11 10
27 9 11 16 15 12 7 6 7 8 8 5 5 5 4 5 4 4 6 8 9 7 10 18 9 18 16 10 9 16 17 22 26 16 12 11 12 12 16 12 12 12 13 13 12
11 9 12 17 12 8 6 6 7 10 10 6 6 7 6 6 4 5 3 8 5 6 10 17 16 12 10 9 6 6 6 8 13 23 15 6 6 17 16 17 12 12 14 14 13
14 8 14 15 10 8 6 8 9 9 9 9 8 8 7 7 4 3 2 2 0 7 14 10 16 9 9 14 15 9 6 8 9 17 12 6 4 17 16 15 12 10 10 10 12
11 12 15 13 10 8 7 7 9 8 9 9 9 8 4 5 2 1 -1 0 1 5 15 7 7 6 6 4 1 7 7 8 9 13 -0 4 2 15 14 8 9 11 10 11 12
12 9 12 11 10 10 8 8 7 10 10 11 11 13 4 6 2 -1 -2 -3 0 4 12 9 3 1 -3 1 5 3 4 6 11 1 -2 -0 2 8 11 10 10 8 9 10 11
14 10 11 9 9 10 9 9 8 8 9 12 11 12 4 3 3 3 1 -3 -3 0 5 9 5 5 7 5 -0 3 4 4 3 5 -2 1 1 7 10 13 9 8 8 9 10
19 14 14 11 11 10 11 9 9 9 9 10 11 12 11 8 5 6 5 5 -3 -2 1 8 7 5 3 -3 -2 -1 2 2 3 5 5 4 3 11 13 12 9 9 8 9 10
27 24 13 12 10 10 11 11 10 9 11 11 11 12 13 14 17 17 14 9 7 -3 -2 5 8 2 2 -2 -8 -6 3 3 3 5 5 -1 6 10 10 10 10 9 9 9 10
Wind_Speed
21 21 22 21 21 21 21 20 20 19 18 18 18 17 16 16 16 16 22 16 13 27 4 11 13 16 9 6 9 4 5 11 11 9 9 4 8 3 6 13 6 4 8 18 22
21 21 22 23 23 23 23 22 22 21 20 19 18 17 16 15 17 24 22 24 27 12 14 21 21 20 9 16 7 10 11 11 10 16 5 8 14 15 6 14 8 15 13 24 23
23 23 23 24 25 25 24 24 23 22 20 19 18 17 14 12 9 9 1 17 24 23 16 18 13 15 13 8 12 14 13 24 11 10 6 2 5 2 14 12 11 26 23 20 24
23 24 26 26 26 25 24 25 25 23 21 19 16 14 10 5 8 3 12 5 17 22 20 14 18 17 12 20 21 11 27 12 20 3 2 6 3 5 9 5 10 25 27 18 24
25 26 26 27 27 27 27 28 26 23 22 20 15 13 6 7 14 12 24 10 14 22 25 23 25 25 17 19 11 26 10 24 30 20 7 2 4 5 9 6 7 24 25 25 22
26 27 28 29 29 29 29 28 28 25 21 18 15 12 10 14 9 14 24 18 8 17 20 22 13 25 19 9 29 14 33 24 15 13 11 10 7 2 6 8 11 24 27 26 24
27 28 29 30 30 30 31 31 29 27 21 16 13 13 18 22 16 30 25 14 14 13 19 25 29 18 10 17 24 28 13 25 31 15 12 10 13 11 12 12 15 18 21 23 24
28 28 29 29 29 30 32 33 30 29 25 16 11 9 10 13 15 16 14 20 13 14 15 20 24 14 11 15 5 18 20 28 15 22 11 19 17 20 19 13 17 17 19 20 16
29 30 30 29 30 31 30 35 33 25 8 5 7 8 7 8 18 14 12 10 16 18 13 17 19 20 14 16 18 21 22 33 12 24 11 18 8 19 23 19 21 19 21 18 13
30 30 29 28 30 27 28 35 18 5 5 3 6 5 5 17 20 21 19 15 10 11 12 15 11 23 24 26 48 18 29 15 28 17 20 20 14 4 12 30 26 23 23 18 16
29 28 27 29 30 26 18 8 12 9 11 6 14 9 16 14 12 19 24 18 6 12 17 16 25 42 54 46 22 22 18 30 18 20 22 35 26 12 5 21 19 16 21 22 19
27 26 28 30 23 20 15 7 7 2 8 20 16 13 17 19 12 19 19 12 7 6 8 16 40 46 22 26 26 22 23 27 18 22 23 23 23 14 12 10 19 23 20 18 16
25 25 29 28 12 9 15 8 6 4 2 15 18 20 21 16 5 14 14 11 8 13 13 20 28 27 25 27 31 34 31 17 19 20 7 20 13 22 7 21 21 19 20 21 18
23 25 28 24 7 11 3 8 4 1 4 14 26 12 17 19 9 7 15 3 5 7 9 14 25 26 28 31 29 39 32 21 15 11 24 13 18 15 18 18 20 18 20 19 18
23 25 27 19 11 5 14 5 1 2 6 18 17 16 16 17 14 14 19 4 6 13 5 6 7 11 29 33 29 26 22 27 23 17 4 8 9 12 27 16 17 17 19 19 18
23 23 24 15 11 8 14 3 2 7 6 10 20 20 22 17 16 16 14 11 2 8 9 21 8 6 6 11 21 19 10 13 29 21 20 21 17 11 13 24 17 18 19 17 18
22 20 22 12 21 25 2 3 10 10 15 17 26 16 21 20 11 14 20 22 18 13 14 12 6 4 7 14 6 20 23 14 16 26 26 27 21 6 12 17 20 21 18 17 17
19 18 22 17 23 18 8 15 15 9 14 18 18 17 15 22 12 9 13 21 12 9 14 10 4 14 13 4 4 7 17 13 35 16 26 26 18 12 14 18 19 18 17 19 19
12 12 18 26 21 17 11 21 8 8 15 17 15 13 13 22 15 9 8 19 9 18 10 6 5 7 16 6 4 7 17 18 3 6 11 10 9 11 16 16 18 18 19 19 19
4 5 23 25 19 14 20 17 8 14 11 11 13 8 13 17 15 12 18 15 17 18 20 5 7 11 6 8 10 7 10 18 15 21 23 9 7 14 12 14 15 17 18 17 18
6 6 23 22 13 13 15 6 8 16 15 10 14 8 10 10 11 10 15 8 18 21 18 8 5 8 7 8 21 11 7 7 6 6 13 13 4 6 10 12 13 14 15 16 17
5 7 17 8 15 7 15 6 7 12 11 8 12 7 10 13 10 10 14 13 21 21 12 10 3 6 7 10 14 21 12 5 3 3 6 10 6 9 10 12 12 13 14 16 16
5 3 12 14 10 10 10 13 5 14 16 9 12 8 16 9 6 17 16 15 20 24 14 12 7 3 3 6 13 10 26 14 9 3 11 9 9 10 12 12 12 14 15 16 17
6 6 7 11 9 10 4 12 10 9 8 12 9 9 12 9 9 10 19 10 16 24 17 8 11 13 13 10 9 12 30 32 10 9 10 15 16 14 13 13 12 14 15 14 16
5 4 2 8 12 17 7 9 12 10 8 13 8 16 7 7 9 9 11 16 9 25 13 5 9 23 18 18 28 27 29 32 35 11 7 15 20 13 12 10 13 15 15 15 17
5 3 3 5 11 11 13 10 11 8 5 8 10 16 5 2 2 9 11 11 9 14 13 9 8 13 14 17 32 30 29 32 22 20 17 17 17 12 12 11 16 16 17 16 18
6 4 5 11 8 6 10 11 10 5 3 7 9 9 8 6 8 14 12 12 7 10 14 10 2 8 2 6 4 13 18 18 18 22 12 14 11 13 15 15 16 17 17 18 20
Wind_Direction
352 349 345 341 338 333 329 325 320 316 314 313 312 310 305 307 297 281 254 228 201 234 294 169 186 207 220 216 215 188 236 224 233 235 246 262 145 142 143 145 110 96 130 159 145
349 346 343 340 336 332 328 323 318 315 313 311 310 308 308 308 297 271 244 232 229 250 210 179 189 195 201 203 202 197 215 223 225 229 289 220 152 155 134 149 129 93 104 139 140
348 347 343 339 336 331 327 324 318 312 307 305 305 305 306 312 303 251 273 230 225 221 199 189 189 184 202 173 209 206 221 219 247 258 290 195 125 158 135 179 167 138 139 138 143
349 346 346 340 335 331 329 326 318 311 306 298 298 298 299 302 256 77 343 302 227 211 196 195 194 196 199 206 209 211 225 207 247 10 210 167 162 167 149 159 161 148 149 146 153
351 347 343 338 335 330 325 326 321 312 301 297 286 283 267 232 255 321 7 330 152 183 191 205 201 198 195 210 223 222 222 219 241 253 217 252 200 178 195 146 159 158 154 160 162
350 346 341 337 333 329 324 320 318 316 309 290 277 261 224 243 249 3 355 343 170 181 198 206 215 206 215 214 204 206 227 242 243 228 219 199 219 148 223 166 122 163 165 164 168
348 344 339 335 332 328 323 316 314 310 306 287 266 246 242 242 304 311 316 307 295 224 212 223 229 205 201 215 248 227 224 228 236 224 213 177 230 210 225 171 166 156 170 165 171
346 342 337 334 333 332 325 314 315 309 301 263 236 236 248 291 268 290 316 314 280 272 249 243 232 250 240 236 300 212 233 238 221 207 209 169 231 209 219 186 183 163 153 161 158
344 341 338 336 336 334 324 314 313 304 308 204 179 206 265 302 3 325 308 300 301 270 263 259 237 231 235 229 240 237 225 219 214 199 170 179 208 230 215 203 194 181 167 158 149
345 341 337 336 338 337 335 322 324 14 315 194 43 157 5 342 337 316 348 324 268 285 275 233 232 218 225 209 217 214 217 210 210 187 191 193 210 216 198 195 199 179 177 167 123
345 345 345 342 342 343 355 357 12 356 27 341 314 334 341 339 318 2 351 323 295 249 239 224 213 209 213 215 214 213 211 218 215 200 187 202 195 189 153 185 169 141 124 114 107
350 354 351 349 357 19 45 54 68 259 328 344 5 19 344 333 351 6 8 6 344 296 236 251 219 225 225 225 223 231 218 229 220 206 205 196 199 170 165 120 122 116 104 103 85
357 360 352 351 14 23 63 43 348 1 208 25 13 18 351 333 24 3 4 328 290 279 266 248 239 246 230 216 216 222 225 207 203 220 218 183 185 181 83 104 95 83 86 73 72
359 356 352 350 8 336 4 351 14 81 80 358 11 351 344 346 32 15 359 312 316 314 321 260 258 266 243 230 215 221 221 222 232 183 207 180 204 175 146 112 92 84 78 73 65
359 356 354 356 308 332 317 346 49 105 65 343 346 319 349 13 19 13 15 337 316 314 315 257 324 250 252 230 218 233 208 219 227 221 162 194 183 189 136 131 113 89 84 75 68
358 356 359 354 348 293 308 71 72 56 21 358 338 354 18 358 34 4 8 16 4 308 241 250 276 306 330 316 235 215 223 214 216 220 220 205 189 153 184 155 121 92 77 77 66
358 4 16 0 339 320 79 71 59 47 345 341 336 1 17 359 40 15 10 24 35 356 354 317 6 93 25 323 236 201 207 205 216 204 216 198 194 101 65 102 104 95 77 67 63
356 20 9 359 342 356 58 61 67 0 3 341 340 4 10 5 356 39 17 14 29 22 318 338 12 14 356 347 286 273 205 203 204 201 194 178 179 138 94 82 79 74 71 60 54
356 13 13 346 353 22 67 56 45 3 344 354 352 10 0 359 351 16 10 16 5 13 356 319 318 327 33 11 12 317 227 215 324 181 169 119 80 95 103 80 68 61 56 51 43
13 40 3 343 15 29 61 83 69 24 352 5 15 1 355 344 357 15 13 19 357 355 345 321 296 8 31 7 16 28 352 216 210 188 204 127 120 144 129 83 64 52 47 43 39
47 53 347 350 63 41 50 56 44 16 24 16 6 350 342 331 358 32 2 342 0 342 338 349 280 32 55 52 40 7 10 337 279 256 179 141 108 43 71 69 61 44 43 43 35
59 60 347 14 44 27 31 26 20 353 9 1 5 356 347 352 32 28 2 14 3 356 331 332 321 59 104 140 102 63 359 299 143 235 34 102 121 46 70 64 58 46 39 38 32
80 99 14 33 52 19 33 18 66 17 10 1 10 15 338 28 17 31 349 336 11 0 352 345 11 171 157 317 20 27 1 332 211 56 357 107 123 56 57 61 50 48 33 30 25
69 35 353 38 54 40 29 22 9 343 18 4 26 3 357 18 20 6 359 347 8 4 29 62 24 79 109 101 47 34 18 16 79 88 87 68 83 44 38 41 43 37 33 26 22
62 42 0 8 29 32 57 7 6 3 1 14 356 2 359 1 348 355 346 354 0 7 6 73 84 103 115 93 61 42 37 35 54 73 84 108 68 25 18 20 43 35 29 24 17
98 93 41 46 11 33 24 3 5 343 329 357 0 341 28 61 341 314 338 354 31 339 5 351 148 135 127 97 76 51 33 33 35 42 78 83 67 17 6 57 44 30 26 20 13
12 40 104 17 18 39 4 344 344 347 296 2 5 342 329 320 286 273 282 297 320 21 2 0 77 210 223 236 121 36 21 52 55 39 44 48 33 21 26 65 46 28 22 16 9